www.pogodaiklimat.ru

Погода и климат >> Архив погоды >> Италия >> Понца


ПОГОДА на Понце

  • Прогноз погоды на Понце
  • Монитор погоды на Понце

АРХИВ ПОГОДЫ на Понце

Время (UTC), дата Ветер
(напр.,м/с)
 
Видим.   Явления Облачность Т
(С)
Тd
(С)
f
(%)
Тe
(С)
Тes
(С)
Комфортность P
(гПа)
Po
(гПа)
Тmin
(С)
Tmax
(С)
R
(мм)
R24
(мм)
S
(см)
07 12.07 30 км 4/0
[Cc]
+26.0 +23.5 86 1012.1 991.0
08 12.07 З 3 30 км 4/0
[Cc]
+26.4 +22.9 81 +35 +45 очень
душно
1012.0 991.0
09 12.07 нст 2 20 км 3/0
[Cc]
+27.2 +21.9 73 +35 +50 очень
душно
1012.3 991.3
10 12.07 20 км 6/0
[Ac trans Cc]
+28.0 +20.6 64 1012.2 991.3
11 12.07 СЗ 2
{6}
30 км 8/0
[Ac As Cc]
+29.6 +20.7 59 +37 +47 очень
душно
1011.9 991.1
12 12.07 нст 2 20 км 6/0 2000 м
[Ac und]
+28.8 +20.5 61 +36 +48 очень
душно
1011.8 990.9
13 12.07 З 3 20 км 3/0
[Ac trans]
+29.2 +21.4 63 +37 +48 очень
душно
1011.8 990.9
14 12.07 З 4 20 км 4/0
[Ac trans]
+29.0 +24.6 77 +41 +48 опасность
перегрева
1011.3 990.4
15 12.07 З 4 20 км 4/4 750 м
[Cu med, cong]
+28.8 +25.2 81 +42 +45 опасность
перегрева
1011.3 990.4
16 12.07 З 3 30 км ясно +29.2 +26.0 83 +44 +48 опасность
перегрева
1010.9 990.1
17 12.07 З 3 30 км ясно +28.2 +25.2 84 +41 +42 опасность
перегрева
1011.0 990.1
18 12.07 З 4
{6}
20 км 4/4 600 м
[Cu hum]
+26.4 +25.2 93 +38 +38 очень
душно
1011.1 990.1 +30.0
19 12.07
{5}
30 км 4/4 600 м
[Cu hum]
+25.8 +25.1 96 1011.1 990.0
20 12.07 З 3 20 км 3/3 600 м
[Cu hum]
+25.0 +24.1 95 +34 +34 очень
душно
1011.2 990.1
21 12.07 З 3 30 км ясно +25.0 +23.4 91 +34 +34 очень
душно
1012.1 990.9
22 12.07 З 3 20 км ясно +24.8 +22.9 89 +33 +33 очень
душно
1012.2 991.0
23 12.07 Ю 3 30 км ясно +24.6 +23.0 91 +33 +33 очень
душно
1012.1 990.9
00 13.07 Ю 3 20 км н/о +24.4 +22.7 90 +32 +32 очень
душно
1011.6 990.4
01 13.07 Ю 3 30 км 5/5 600 м
[Cu hum]
+24.4 +24.1 98 +34 +34 очень
душно
1011.1 989.9
03 13.07 ЮЗ 3
{6}
20 км 5/5 600 м
[Cu hum]
+24.4 +23.2 93 +33 +33 очень
душно
1010.1 988.9
04 13.07 ЮЗ 4
{7}
30 км ясно +24.3 +24.0 98 +33 +33 очень
душно
1010.1 988.9
05 13.07 ЮЗ 3
{6}
30 км 4/4 300 м
[Cu hum]
+24.6 +24.3 98 +34 +35 очень
душно
1009.8 988.6
06 13.07 ЮЗ 2 20 км 5/5 300 м
[Cu hum]
+25.2 +24.5 96 +35 +37 очень
душно
1009.7 988.6 +24.0
07 13.07 ЮЗ 2 30 км 3/3 300 м
[Cu hum]
+25.8 +25.3 97 +37 +42 очень
душно
1009.5 988.5
08 13.07 ЮЗ 3 20 км 3/3 300 м
[Cu hum]
+26.0 +24.8 93 +37 +44 очень
душно
1009.0 988.0
09 13.07 З 4 20 км 6/6 300 м
[Cu med, cong]
+27.8 +25.8 89 +41 +46 опасность
перегрева
1009.4 988.5
10 13.07 З 4 20 км 3/3 300 м
[Cu hum]
+27.6 +25.0 86 +40 +49 очень
душно
1009.7 988.8
11 13.07 З 3 20 км 3/3 300 м
[Cu hum]
+28.6 +24.6 79 +41 +52 опасность
перегрева
1009.6 988.8
12 13.07 З 3 20 км 4/0 1500 м
[Ac trans]
+28.4 +24.6 80 +40 +52 опасность
солнечного
удара
1009.1 988.3
13 13.07 З 4 20 км ясно +29.0 +24.3 76 +41 +52 опасность
перегрева
1008.8 988.0
14 13.07 20 км ясно +28.6 +23.3 73 1007.8 987.0
15 13.07 ЮЗ 5 20 км ясно +28.2 +24.2 79 +39 +44 очень
душно
1006.9 986.1
16 13.07 ЮЗ 5
{7}
30 км ясно +28.4 +25.2 83 +41 +44 опасность
перегрева
1007.0 986.2
17 13.07 З 3
{6}
30 км ясно +28.8 +25.0 80 +42 +43 опасность
перегрева
1006.8 986.1
18 13.07 З 3
{6}
20 км ясно +27.0 +25.2 90 +39 +39 очень
душно
1006.9 986.0 +29.5
19 13.07 З 3 20 км ясно +26.0 +25.5 97 +38 +38 очень
душно
1007.0 986.1
20 13.07 З 4 20 км ясно +25.0 +24.8 99 +35 +35 очень
душно
1007.2 986.2
21 13.07 С 3 20 км ясно +25.0 +25.0 100 +36 +36 очень
душно
1007.8 986.8
22 13.07 30 км ясно +25.0 +25.0 100 1008.0 987.0
23 13.07 20 км ясно +25.0 +24.8 99 1008.1 987.1
00 14.07 СВ 4
{7}
30 км ясно +24.8 +24.0 95 +34 +34 очень
душно
1008.2 987.2
01 14.07 СВ 4 20 км 5/5 750 м
[Cu med, cong]
+24.4 +23.0 92 +32 +32 очень
душно
1008.2 987.1
02 14.07 В 6
{10}
40 км ясно +24.0 +21.9 88 +31 +31 очень
душно
1008.1 987.0
03 14.07 В 6 20 км н/о +23.8 +20.7 83 +30 +30 очень
душно
1008.1 987.0
04 14.07 В 6
{10}
30 км 3/3 1050 м
[Cu med, cong]
+23.6 +19.7 79 +29 +29 душно 1008.2 987.0
05 14.07 В 7
{10}
30 км 1/1 1050 м
[Cu med, cong]
+23.8 +18.0 70 +28 +28 душно 1008.3 987.2
06 14.07 В 6 20 км ясно +24.8 +20.7 78 +31 +32 очень
душно
1008.2 987.2 +23.6
07 14.07 В 7 20 км ясно +25.2 +19.8 72 +31 +33 очень
душно
1009.0 987.9
08 14.07 В 7 20 км ясно +25.8 +19.4 68 +31 +35 очень
душно
1009.5 988.5
09 14.07 В 7 20 км 1/1 1500 м
[Cu med, cong]
+26.8 +19.2 63 +32 +37 очень
душно
1010.0 989.1
10 14.07 В 5
{9}
40 км ясно +27.8 +19.6 61 +34 +43 очень
душно
1010.0 989.1
11 14.07 В 6 20 км ясно +28.8 +19.7 58 +35 +44 очень
душно
1009.8 988.9
12 14.07 В 3
{7}
20 км ясно +29.6 +19.9 56 +36 +51 опасность
солнечного
удара
1010.1 989.4
13 14.07
{8}
40 км ясно +29.6 +19.3 54 1009.5 988.8
14 14.07 ЮВ 3 20 км ясно +27.6 +19.4 61 +33 +45 очень
душно
1009.0 988.1
16 14.07 20 км ясно +28.8 +21.1 63 1008.7 987.9
17 14.07 20 км ясно +27.6 +20.4 65 1008.8 987.9
18 14.07 ЮЗ 2 20 км 4/4 900 м
[Cu hum]
+26.4 +20.7 71 +33 +33 очень
душно
1008.7 987.7 +30.0
19 14.07 ЮЗ 2 30 км 3/3 900 м
[Cu hum]
+25.8 +20.8 74 +32 +32 очень
душно
1008.9 987.9
20 14.07 З 2 20 км 4/4 900 м
[Cu hum]
+25.2 +20.9 77 +32 +32 очень
душно
1009.2 988.1
21 14.07 СВ 1 20 км 3/3 900 м
[Cu hum]
+25.0 +20.3 75 +31 +31 очень
душно
1009.2 988.1
22 14.07 СВ 3 30 км 4/4 900 м
[Cu hum]
+24.4 +20.9 81 +31 +31 очень
душно
1008.8 987.7
23 14.07 СВ 3 20 км 6/6 900 м
[Cu hum]
+24.4 +22.5 89 +32 +32 очень
душно
1008.1 987.0
00 15.07 В 5 20 км 8/6 900 м
[Sc diur, vesp]
+24.8 +21.3 81 +31 +31 очень
душно
1007.9 986.8
01 15.07 В 7
{12}
30 км 6/6 900 м
[Sc diur, vesp]
+24.4 +20.5 79 +30 +30 очень
душно
1007.2 986.1
02 15.07
{11}
30 км 9/9 900 м
[Sc diur, vesp]
+24.2 +19.1 73 1006.2 985.1
03 15.07 В 6 20 км 8/8 900 м
[Sc diur, vesp]
+24.4 +19.5 74 +30 +30 очень
душно
1006.4 985.3
04 15.07 В 7
{11}
30 км 6/6 900 м
[Sc diur, vesp]
+24.2 +20.5 80 +30 +30 очень
душно
1006.0 984.9
05 15.07 20 км 8/8 900 м
[Sc diur, vesp]
+24.0 +19.7 77 1005.6 984.5
06 15.07 В 6 20 км 6/6 1200 м
[Sc diur, vesp]
+24.2 +19.1 73 +29 +30 душно 1006.0 985.0 +24.0
07 15.07 В 7 20 км 8/8 1200 м
[Sc diur, vesp]
+24.8 +20.5 77 +31 +31 очень
душно
1006.0 985.0
08 15.07
{10}
30 км 5/5 1200 м
[Sc diur, vesp]
+25.6 +20.4 73 1005.9 985.0
09 15.07 нст 6 20 км 4/4 1200 м
[Cu hum]
+26.4 +20.0 68 +32 +36 очень
душно
1005.8 984.9
10 15.07 В 6
{10}
30 км ясно +26.6 +20.2 68 +33 +41 очень
душно
1005.8 984.9
11 15.07 В 6
{12}
30 км ясно +27.4 +20.0 64 +34 +42 очень
душно
1005.6 984.8
12 15.07 В 5
{10}
20 км 3/0
[Ci fib]
+28.4 +20.4 62 +35 +44 очень
душно
1005.6 984.8
13 15.07 В 6
{10}
30 км 3/0
[Ci fib]
+28.4 +20.7 63 +35 +42 очень
душно
1005.6 984.8
14 15.07 В 5
{7}
20 км 6/0
[Cc]
+26.6 +20.2 68 +33 +39 очень
душно
1005.1 984.2
15 15.07 В 5
{7}
20 км 6/0 2000 м
[Ac trans]
+25.4 +20.4 74 +31 +35 очень
душно
1005.5 984.5
16 15.07 Ю 2 10 км 8/3 750 м
[Sc Ac trans]
+25.0 +20.9 78 +31 +33 очень
душно
1006.5 985.5
20 15.07 СВ 3 10 км 8/5 540 м
[Cb cap Ac trans]
+24.0 +21.3 85 +30 +30 очень
душно
1005.3 984.2
00 16.07 штиль 0 10 км 8/5 500 м
[Cb cap Ac trans]
+23.2 +19.2 78 +30 +30 очень
душно
1004.6 983.5
01 16.07 штиль 0 10 км 8/5 500 м
[Cb cap Ac trans]
+23.0 +19.4 80 +29 +29 очень
душно
1004.6 983.5
02 16.07 штиль 0 8000 м гроза, ливневой дождь 9/6 450 м
[Cb cap Ac trans]
+23.0 +21.3 90 +31 +31 очень
душно
1004.3 983.2
07 16.07 0 10 км 4/0
[Ac trans]
+21.0 +19.3 90 1006.9 985.6
08 16.07 0 10 км 3/0
[Ci fib]
+21.8 +19.2 85 1007.3 986.0
09 16.07 штиль 0 20 км ясно +24.2 +20.9 82 +30 +51 опасность
солнечного
удара
1008.1 987.0
10 16.07 штиль 0 20 км ясно +24.6 +21.3 82 +31 +56 опасность
солнечного
удара
1008.3 987.2
11 16.07 0 20 км ясно +27.0 +22.2 75 1008.2 987.3
12 16.07 СЗ 5 20 км ясно +25.4 +20.4 74 +31 +42 очень
душно
1008.9 987.8
13 16.07 З 4 20 км ясно +26.0 +19.9 69 +32 +44 очень
душно
1008.8 987.8
14 16.07 З 4
{6}
25 км 3/0 2000 м
[]
+26.8 +19.9 66 +33 +40 очень
душно
1009.0 988.0
15 16.07 нст 3 20 км ясно +27.4 +20.0 64 +34 +40 очень
душно
1009.0 988.1
16 16.07 З 4 20 км ясно +27.2 +20.0 65 +33 +37 очень
душно
1009.1 988.2
17 16.07 З 4 20 км 3/0 2000 м
[]
+26.2 +21.2 74 +33 +34 очень
душно
1009.2 988.2
18 16.07 нст 3
{6}
20 км 3/0
[Ac trans]
+25.6 +21.7 79 +33 +33 очень
душно
1009.6 988.6 +27.5
19 16.07
{7}
25 км 3/0
[As trans]
+24.6 +22.7 89 1009.9 988.8
20 16.07 З 4
{6}
20 км 3/0
[Ac trans]
+24.6 +23.2 92 +33 +33 очень
душно
1010.1 989.0
21 16.07 нст 4
{11}
20 км 3/0 2000 м
[Ac trans]
+24.4 +23.0 92 +32 +32 очень
душно
1010.3 989.2
22 16.07 С 3 20 км ясно +24.8 +24.0 95 +34 +34 очень
душно
1010.3 989.2
23 16.07 В 5 20 км ясно +24.0 +23.8 99 +33 +33 очень
душно
1011.2 990.0
00 17.07 В 6
{9}
30 км ясно +23.8 +23.6 99 +32 +32 очень
душно
1011.2 990.0
01 17.07 В 6
{10}
20 км ясно +24.0 +21.3 85 +30 +30 очень
душно
1011.1 989.9
02 17.07 В 5
{7}
20 км н/о +24.0 +20.7 82 +30 +30 очень
душно
1011.1 989.9
03 17.07 ЮВ 6 20 км ясно +23.2 +20.0 82 +30 +30 очень
душно
1011.4 990.1
04 17.07 ЮВ 5 20 км ясно +23.0 +20.2 84 +30 +30 очень
душно
1011.3 990.0
05 17.07 В 5
{8}
20 км ясно +23.4 +20.2 82 +31 +31 очень
душно
1011.2 990.0
06 17.07 В 5 20 км ясно +25.0 +20.7 77 +31 +33 очень
душно
1011.4 990.3 +22.8
07 17.07 В 5
{8}
20 км ясно +24.4 +21.1 82 +31 +34 очень
душно
1011.5 990.3
08 17.07 В 6
{8}
35 км ясно +25.0 +19.6 72 +30 +35 душно 1012.2 991.0
09 17.07 В 4
{6}
20 км ясно +26.6 +19.5 65 +32 +43 очень
душно
1012.0 991.0
10 17.07 В 4
{6}
40 км ясно +27.6 +19.1 60 +33 +47 очень
душно
1012.1 991.2
11 17.07 В 3 20 км ясно +27.8 +20.4 64 +34 +52 опасность
солнечного
удара
1012.1 991.2
12 17.07 ЮВ 3
{6}
20 км ясно +27.2 +22.4 75 +36 +51 опасность
солнечного
удара
1012.1 991.1
13 17.07 Ю 5
{8}
30 км ясно +27.0 +21.7 73 +35 +44 очень
душно
1012.2 991.2
14 17.07 ЮЗ 4 20 км ясно +26.8 +21.3 72 +34 +43 очень
душно
1011.8 990.8
15 17.07 З 5 20 км ясно +26.8 +20.9 70 +34 +38 очень
душно
1011.7 990.7
16 17.07 З 5
{8}
30 км ясно +27.0 -30.0 1 +22 +25 комфорт 1011.6 990.6
17 17.07 З 5 20 км ясно +26.0 +21.9 78 +33 +34 очень
душно
1011.1 990.0
18 17.07 З 3
{6}
20 км ясно +24.4 +19.9 76 +30 +30 очень
душно
1011.1 990.0 +28.0
20 17.07 З 3 10 км ясно +23.6 +21.5 88 +30 +30 очень
душно
1011.2 990.0
21 17.07 СЗ 2 15 км ясно +23.6 +22.4 93 +31 +31 очень
душно
1011.2 990.0
23 17.07 ЮЗ 3 10 км 3/0
[Ci fib]
+23.6 +22.8 95 +31 +31 очень
душно
1011.2 990.0
00 18.07 ЮЗ 3 10 км 3/0
[Ci fib]
+23.2 +22.7 97 +32 +32 очень
душно
1011.3 990.0
01 18.07 ЮЗ 3 20 км 3/0
[Ci fib]
+23.2 +22.9 98 +32 +32 очень
душно
1011.1 989.9
02 18.07 З 2 20 км 4/0
[Ci fib]
+23.2 +22.9 98 +32 +32 очень
душно
1011.3 990.1
03 18.07 З 2 20 км 3/0
[Ci fib]
+23.2 +22.9 98 +32 +32 очень
душно
1011.1 989.9
04 18.07 СЗ 3 20 км 3/0
[Ci fib]
+23.2 +22.9 98 +32 +32 очень
душно
1011.3 990.0
06 18.07 нст 2 20 км 4/0
[Ci fib]
+24.0 +21.3 85 +30 +34 очень
душно
1011.2 990.0 +22.8
07 18.07 20 км 4/0
[Ci fib]
+24.4 +21.1 82 1011.2 990.0
08 18.07 20 км 4/0
[Ci fib]
+26.4 +21.4 74 1011.6 990.6
09 18.07 С 2 10 км 3/0
[Ci fib]
+27.2 +21.7 72 +35 +49 очень
душно
1012.0 991.0
10 18.07 20 км 3/0
[Ci fib]
+27.6 +22.1 72 1011.9 991.0
11 18.07 нст 3
{6}
20 км ясно +27.6 +23.0 76 +37 +53 опасность
солнечного
удара
1011.9 991.0
12 18.07 З 4 20 км ясно +26.4 +22.5 79 +35 +49 очень
душно
1012.0 991.0
13 18.07 З 4 20 км 4/0
[Ci fib]
+27.0 +22.4 76 +35 +45 очень
душно
1012.0 991.0
14 18.07 З 6 20 км 5/0
[Ci fib]
+27.0 +22.6 77 +36 +41 очень
душно
1012.0 991.0
15 18.07 З 5
{8}
20 км 5/0
[Ci sp]
+26.8 +22.7 78 +35 +39 очень
душно
1011.8 990.8
16 18.07 20 км 5/0
[Ci fib]
+27.0 +23.5 81 1012.0 991.0
17 18.07 З 3
{6}
20 км 5/0
[Ci fib]
+26.6 +23.9 85 +37 +38 очень
душно
1012.0 991.0
18 18.07 З 3 20 км 5/0
[Ci fib]
+25.0 +22.5 86 +33 +33 очень
душно
1012.2 991.1 +28.5
19 18.07 З 4 20 км 3/0
[Cc]
+24.2 +22.3 89 +31 +31 очень
душно
1012.9 991.7
20 18.07 З 3 20 км ясно +23.8 +22.6 93 +31 +31 очень
душно
1013.2 992.0
21 18.07 СЗ 2 30 км ясно +23.4 +22.6 95 +32 +32 очень
душно
1013.7 992.5
22 18.07 З 3 20 км ясно +23.4 +22.6 95 +32 +32 очень
душно
1013.8 992.6
23 18.07 20 км ясно +23.2 +22.5 96 1014.1 992.8
00 19.07 З 1 20 км ясно +23.2 +22.4 95 +32 +32 очень
душно
1014.1 992.8
01 19.07 30 км ясно +23.0 +22.8 99 1014.2 992.9
02 19.07 СВ 2 30 км ясно +23.0 +23.0 100 +32 +32 очень
душно
1014.3 993.0
03 19.07 В 1 30 км ясно +22.6 +22.4 99 +31 +31 очень
душно
1014.3 993.0
04 19.07 ЮВ 2 30 км ясно +22.4 +22.2 99 +30 +30 очень
душно
1014.1 992.8
05 19.07 ЮВ 1 20 км ясно +22.6 +22.6 100 +31 +32 очень
душно
1014.3 993.0

 

Местоположение метеостанции Понца (Италия): широта 40.92 долгота 12.95 высота над уровнем моря 185 м.

В архиве по умолчанию представлена погода на Понце за последнюю неделю. Архивные данные за месяц целиком и за предыдущие месяцы, начиная с января 2011 года, Вы можете получить, выбрав интересующий диапазон дат из раскрывающегося списка и нажав кнопку "Ввод!".


*Определитесь, кто Вы:
робот инопланетянин человек

Внимание! Время в таблицах - всемирное. Для получения местного времени необходимо прибавить поправку, которая равна 1 ч.

Смотрите также архив погоды в соседних городах и на ближайших метеорологических станциях:

Погода в Торре-Олеволе (Италия) (39 км)
Погода в Латине (Италия) (70 км)
Погода в Латине 2 (Италия) (70 км)
Погода во Фрозиноне (Италия) (84 км)
Погода в Пратика-ди-Маре (Италия) (91 км)
Погода в Граццанизе (Италия) (95 км)
Погода на Капри (Италия) (113 км)
Погода в Неаполе (Италия) (114 км)
Погода в Риме (Италия) (115 км)
Погода в Казерте (Италия) (116 км)

Пояснения к столбцам:

Ветер - указаны скорость ветра в м/с - средняя за 10 мин, порывы в срок и между сроками (в фигурных скобках) и направление, откуда дует ветер: С - северный, СВ - северо-восточный, В - восточный, ЮВ - юго-восточный, Ю - южный, ЮЗ - юго-западный, З - западный, СЗ - северо-западный.
Видимость - горизонтальная дальность видимости в метрах или километрах. При видимости от 1 до 10 км при отсутствии осадков обычно наблюдается дымка, при ухудшении видимости до 1 км и менее - туман. В сухую погоду видимость может ухудшаться дымом, пылью или мглою.
Явления - указаны атмосферные явления, наблюдавшиеся в срок или в последний час перед сроком; фигурными скобками обозначены явления, наблюдавшиеся между сроками (за 1-3 часа до срока); квадратными скобками обозначены град или гололедные отложения с указанием их диаметра в мм.
Облачность - указаны через наклонную черту общая и нижняя облачность в баллах и высота нижней границы облаков в метрах; квадратными скобками обозначены формы облаков: Ci - перистые, Cs - перисто-слоистые, Cc - перисто-кучевые, Ac - высококучевые, As - высокослоистые, Sc - слоисто-кучевые, Ns - слоисто-дождевые, Cu - кучевые, Cb - кучево-дождевые. Подробнее классификацию облаков см. в Атласе облаков (PDF).
T - Температура воздуха - температура, измеренная на высоте 2 м над землей.
Td - Температура точки росы - температура, при понижении до которой содержащийся в воздухе водяной пар достигнет насыщения.
f - Относительная влажность воздуха - влажноcть воздуха, измеренная на высоте 2 м над землей.
Te - Эффективная температура - температура, которую ощущает одетый по сезону человек в тени. Характеристика душности погоды. При расчете учитывается влияние влажности воздуха и скорости ветра на теплоощущения человека.
Tes - Эффективная температура на солнце - температура, которую ощущает человек, с поправкой на солнечный нагрев. Характеристика знойности погоды. Зависит от высоты солнца над горизонтом, облачности и скорости ветра. Ночью, в пасмурную погоду, а также при ветре 12 м/с и более поправка равна нулю.
P - Атмосферное давление - приведенное к уровню моря атмосферное давление.
Po - Атмосферное давление - измеренное на уровне метеостанции атмосферное давление.
Tmin - Минимальная температура - минимум температуры воздуха на высоте 2 м над землей.
Tmax - Максимальная температура - максимум температуры воздуха на высоте 2 м над землей.
R - Количество осадков - Количество выпавших осадков за период времени, мм. При наведении курсора мыши на число - период времени, за который выпало указанное количество осадков.
R24 - Количество осадков - Количество выпавших осадков за 24 часа, мм.
S - Снежный покров - Высота снежного покрова, см. При наведении курсора мыши на число - состояние снежного покрова и степень покрытия местности в баллах.